Location: ????
(32.1228°N, 34.8377°E)
Time: 03:36:26
(UTC+00:00)

Cosmos 1536 - Pass Details

Date: 21 September 2020
Orbit: 541 x 558 km, 82.5° (Epoch: 23 October)

Event Time Altitude Azimuth Distance (km) Brightness Sun altitude
Rises 02:04:36 0° 357° (N) 2,746 6.5 -18.4°
Reaches altitude 10° 02:06:47 10° 360° (N) 1,847 5.6 -18.0°
Maximum altitude 02:10:50 67° 83° (E) 606 3.2 -17.1°
Drops below altitude 10° 02:14:51 10° 166° (SSE) 1,830 5.5 -16.3°
Sets 02:17:01 0° 169° (S) 2,718 6.4 -15.8°
